    Observer details:
    160 Castelmartini.  Observers M. Jaeger, E. Prosperi, S. Prosperi,
        W. Vollmann.  Measurer E. Prosperi.  0.35-m f/10 Schmidt-Cassegrain + CCD.
    203 GiaGa Observatory.  Observers S. Foglia, G. Galli.  Measurer G. Galli.
        0.36-m f/7.50 Schmidt-Cassegrain + CCD.
    474 Mount John Observatory, Lake Tekapo.  Observers A. C. Gilmore,
        P. M. Kilmartin.  Measurer P. M. Kilmartin.  1.0-m f/7.7 reflector + CCD.
    595 Farra dIsonzo.  Observers S. Aschi, U. Montanar, F. Bressan,
        E. Pettarin, F. Piani.  Measurer S. Aschi.  0.61-m f/4.5 reflector + CCD.
    703 Catalina Sky Survey.  Observer B. M. Africano.  Measurers B. M. Africano,
        E. J. Christensen, G. A. Farneth, D. C. Fuls, A. R. Gibbs, A. D. Grauer,
        H. Groeller, R. A. Kowalski, S. M. Larson, G. J. Leonard, T. A. Pruyne,
        R. L. Seaman, F. C. Shelly.  0.68-m Schmidt + 10K CCD.
    C77 Bernezzo Observatory.  Observer A. Mantero.  0.25-m f/4.0 reflector + CCD.
    C95 SATINO Remote Observatory, Haute Provence.  Observer J. Jahn.  0.60-m
        f/3.2 Newtonian reflector + CCD.
    G96 Mt. Lemmon Survey.  Observers R. A. Kowalski, T. A. Pruyne.  Measurers
        B. M. Africano, E. J. Christensen, G. A. Farneth, D. C. Fuls, A. R. Gibbs,
        A. D. Grauer, H. Groeller, R. A. Kowalski, S. M. Larson, G. J. Leonard,
        T. A. Pruyne, R. L. Seaman, F. C. Shelly.  1.5-m reflector + 10K CCD.
    H06 iTelescope Observatory, Mayhill.  Observer M. Suzuki.  0.43-m f/4.5
        reflector + CCD.
    J95 Great Shefford.  Observers P. Birtwhistle, A. Prior, J. Terepin,
        S. Terepin.  Measurer P. Birtwhistle.  0.41-m f/6.3 Schmidt-Cassegrain +
        CCD.
    K38 M57 Observatory, Saltrio.  Observer G. Baj.  0.3-m f/5.5 Ritchey-Chretien
        + CCD.
    K63 G. Pascoli Observatory, Castelvecchio Pascoli.  Observer R. Bacci.
        0.41-m f/3.2 Newtonian reflector + CCD.
    K87 Dettelbach Vineyard Observatory.  Observer B. Haeusler.  0.30-m
        Schmidt-Cassegrain + CCD.
    L01 Visnjan Observatory, Tican.  Observer K. Korlevic.  1.0-m f/2.9 reflector
        + CCD.
    W34 Squirrel Valley Observatory, Columbus.  Observer R. L. Flynn.  0.2-m
        f/7.0 Schmidt-Cassegrain + CCD.
    X31 Galileo Galilei Observatory, Oro Verde.  Observer C. Fornari.  Measurers
        C. Fornari, A. Mottino.  0.28-m f/2 Schmidt-Cassegrain + CCD.
    Z80 Northolt Branch Observatory.  Observer G. Wells.  Measurer D. Bamberger.
        0.25-m f/8.0 Ritchey-Chretien + CCD.
    Z99 Clixby Observatory, Cleethorpes.  Observer A. Mickleburgh.  0.36-m f/8
        Schmidt-Cassegrain + CCD.
    
    Orbital elements:
    2019 CS5                                                 Earth MOID = 0.0023 AU
    Epoch 2019 Apr. 27.0 TT = JDT 2458600.5                 MPC
    M  26.52763              (2000.0)            P               Q
    n   0.51465644     Peri.   20.91075     -0.98096156     -0.19137855
    a   1.5421423      Node   147.99993     +0.16816670     -0.92207701
    e   0.3741901      Incl.    3.56977     +0.09713070     -0.33637514
    P   1.92           H   25.9           G   0.15           U   5
    Residuals in seconds of arc
    190213 G96  0.1+  0.2-    190213 K87  0.0   0.1+    190213 203  0.2+  0.0
    190213 G96  1.2+  0.3+    190213 C77  0.2+  0.5-    190213 203  0.1+  0.3+
    190213 G96  0.2-  0.0     190213 K87  0.2+  0.2+    190213 J95  0.7+  0.5-
    190213 G96  0.8-  0.4+    190213 L01  0.1-  0.2-    190213 J95  0.3-  0.0
    190213 G96  0.0   0.3+    190213 L01  0.1-  0.1+    190213 Z80  0.3-  0.4-
    190213 G96  0.3+  0.4-    190213 160  0.3+  0.8+    190213 J95  0.5+  0.5+
    190213 H06  0.5-  0.3+    190213 160  1.1-  0.2-    190213 Z80  0.5+  0.4+
    190213 H06  1.2+  0.6+    190213 160  0.3+  0.2+    190213 Z80  1.0-  0.6-
    190213 G96  0.6-  0.0     190213 L01  0.3-  0.3+    190213 X31 (3.5-  1.8-)
    190213 G96  0.5-  0.4+    190213 160  0.2+  0.3-    190213 X31 (3.0-  1.2-)
    190213 G96  0.4-  0.1-    190213 L01  0.0   0.1+    190214 X31 (3.4-  1.7-)
    190213 G96  0.1-  0.4+    190213 160  0.0   0.2-    190214 W34  1.0-  0.4-
    190213 703  0.6-  0.6-    190213 K87  0.4+  0.3-    190214 W34  1.2-  1.2-
    190213 703  0.4+  0.3-    190213 K87  0.3-  0.3-    190214 W34  0.4-  0.4+
    190213 703  0.4+  0.4+    190213 K87  0.2+  0.1-    190214 K87  0.5+  1.0+
    190213 703  1.2-  0.6+    190213 K87  0.4-  0.1-    190214 K87  0.2-  0.9+
    190213 474  0.3+  0.2-    190213 K63  0.3-  0.8+    190214 K87  0.8+  1.4+
    190213 474  0.2-  0.5-    190213 K63  0.2+  0.2+    190214 C95  0.1-  0.9-
    190213 474  0.1-  0.2-    190213 K63  0.4-  0.9-    190214 J95  0.2+  0.0
    190213 474  0.1+  0.2-    190213 K63  0.0   0.7-    190214 J95  0.2-  0.1+
    190213 K87  0.6+  0.0     190213 K63  0.0   0.1-    190214 J95  0.4-  0.2-
    190213 K87  0.0   0.2+    190213 K63  0.1-  0.5+    190214 C95  0.9+  0.2+
    190213 K87  0.2+  0.2-    190213 K38  0.1-  0.3-    190214 J95  0.0   0.2-
    190213 K87  0.4-  0.4+    190213 K38  0.2-  0.2-    190214 C95  0.4+  0.9-
    190213 C77  0.8+  0.1-    190213 K38  0.0   0.1+    190214 Z99  0.4-  0.4-
    190213 K87  0.3-  0.4-    190213 K38  0.2+  0.0     190214 Z99 (2.8-  0.7-)
    190213 C77  0.2-  0.1+    190213 K38  0.0   0.6-    190214 595  0.3-  0.1+
    190213 K87  0.4+  0.3+    190213 203  0.1-  0.2-    190214 595  0.1-  0.2-
    
    Ephemeris:
    2019 CS5                 a,e,i = 1.54, 0.37, 4                   q = 0.9651
    Date    TT    R. A. (2000) Decl.     Delta      r     Elong.  Phase     V
    2019 01 16    06 44 25.2 +05 36 44   0.1201  1.0959   158.0    19.6    22.5
    ...
    2019 01 31    06 30 55.2 +03 43 05   0.05946 1.0331   142.8    35.2    21.3
    ...
    2019 02 08    06 17 45.0 +01 49 32   0.02935 1.0063   132.1    46.7    20.0
    ...
    2019 02 14    05 15 54.3 -08 04 50   0.0073760.9898   109.1    70.5    17.7
    2019 02 15    04 00 40.0 -18 48 56   0.0042060.9874    87.9    91.9    17.2
    2019 02 16    23 33 02.6 -32 58 43   0.0030410.9851    30.1   149.8    21.7
    ...
    2019 02 22    18 53 52.0 -07 38 43   0.02352 0.9743    50.7   128.2    23.2
    ...
    2019 03 02    18 43 04.4 -05 31 07   0.05340 0.9663    61.1   116.1    24.0
    ...
    2019 03 17    18 46 16.8 -04 47 04   0.1076  0.9717    74.5    99.3    24.6
    
    A. U. Tomatic                (C) Copyright 2019 MPC           M.P.E.C. 2019-C159
    

    Read MPEC 2019-C158 Read MPEC 2019-C160


    MPEC number:

    Enter an MPEC number in one of the following forms:

    • 1997-B01 (the full form)
    • J97B01 (the packed version of the full form)
    • B01 (the abbreviated form)